Location: Shepherdstown, WV
(39.4326°N, 77.8042°W)
Time: 22:10:01
(UTC-04:00)

Vanguard 1 Rocket - Pass Details

Date: 14 August 2021
Orbit: 650 x 4226 km, 34.3° (Epoch: 16 September)

Event Time Altitude Azimuth Distance (km) Brightness Sun altitude
Rises 11:04:57 0° 271° (W) 8,472 12.0 51.8°
Reaches altitude 10° 11:11:04 10° 270° (W) 7,348 11.8 52.7°
Maximum altitude 11:35:03 71° 193° (SSW) 3,127 11.4 56.4°
Drops below altitude 10° 11:48:12 10° 112° (ESE) 4,377 11.5 58.2°
Sets 11:50:50 0° 110° (ESE) 5,029 11.6 58.6°
